www.pogodaiklimat.ru

Погода и климат >> Архив погоды >> Швеция >> Вадероарна


ПОГОДА на Вадероарна

  • Прогноз погоды на Вадероарна
  • Монитор погоды на Вадероарна

АРХИВ ПОГОДЫ на Вадероарна

Время (UTC), дата Ветер
(напр.,м/с)
 
Видим.   Явления Облачность Т
(С)
Тd
(С)
f
(%)
Тe
(С)
Тes
(С)
Комфортность P
(гПа)
Po
(гПа)
Тmin
(С)
Tmax
(С)
R
(мм)
R24
(мм)
S
(см)
19 15.02 Ю 8
{11}
н/о н/о +5.0 +3.8 92 -1 -1 1022.3 1019.3
20 15.02 Ю 7
{10}
н/о н/о +4.7 +4.4 98 -1 -1 1021.7 1018.7
21 15.02 Ю 9
{10}
н/о н/о +4.7 +3.6 93 -2 -2 1020.8 1017.9
22 15.02 Ю 7
{10}
н/о н/о +5.6 +2.6 81 0 0 1020.1 1017.2
23 15.02 ЮЗ 9
{11}
н/о н/о +5.3 +2.8 84 -1 -1 1019.0 1016.1
00 16.02 ЮЗ 8
{11}
н/о н/о +4.9 +3.1 88 -1 -1 1018.9 1015.9
01 16.02 ЮЗ 9
{12}
н/о н/о +4.9 +3.1 88 -1 -1 1017.7 1014.8
02 16.02 ЮЗ 8
{12}
н/о н/о +4.9 +2.9 87 -1 -1 1017.0 1014.1
03 16.02 ЮЗ 9
{12}
н/о н/о +5.0 +3.6 91 -1 -1 1016.0 1013.1
04 16.02 ЮЗ 10
{12}
н/о н/о +5.0 +3.2 88 -2 -2 1015.2 1012.3
05 16.02 Ю 9
{12}
н/о н/о +4.9 +3.3 89 -1 -1 1014.5 1011.6
06 16.02 ЮЗ 8
{12}
н/о н/о +5.1 +3.5 89 -1 -1 1013.9 1010.9 +3.7 +5.7
07 16.02 Ю 9
{12}
н/о н/о +5.1 +3.8 91 -1 -1 1013.3 1010.4
08 16.02 Ю 10
{13}
н/о н/о +5.1 +3.6 90 -1 -1 1013.1 1010.2
09 16.02 Ю 10
{13}
н/о н/о +5.3 +3.8 90 -1 -1 1012.3 1009.4
10 16.02 ЮЗ 12
{15}
н/о н/о +5.6 +3.9 89 -1 -1 1011.9 1009.0
11 16.02 ЮЗ 11
{15}
н/о н/о +5.7 +4.4 91 -1 -1 1011.9 1009.0
12 16.02 ЮЗ 12
{14}
н/о н/о +5.7 +4.5 92 -1 -1 1011.3 1008.4
13 16.02 ЮЗ 13 н/о н/о +5.6 +5.3 98 -2 -2 1010.8 1007.9
14 16.02 ЮЗ 13
{15}
н/о н/о +5.8 +4.7 93 -1 -1 1011.2 1008.3
15 16.02 ЮЗ 12
{15}
н/о н/о +5.8 +4.9 94 -1 -1 1011.4 1008.6
16 16.02 ЮЗ 13
{15}
н/о н/о +5.6 +5.6 100 -2 -2 1011.2 1008.3
17 16.02 ЮЗ 13
{15}
н/о н/о +5.5 +5.2 98 -2 -2 1011.7 1008.8
18 16.02 ЮЗ 12
{15}
н/о н/о +5.5 +4.9 96 -1 -1 1012.2 1009.3 +5.0 +5.9
19 16.02 ЮЗ 11
{14}
н/о н/о +5.6 +4.9 95 -1 -1 1012.6 1009.7
20 16.02 З 11
{14}
н/о н/о +5.4 +5.2 99 -1 -1 1013.3 1010.4
21 16.02 ЮЗ 10
{13}
н/о н/о +5.3 +4.8 97 -1 -1 1013.9 1011.0
22 16.02 З 11
{14}
н/о н/о +4.6 +4.6 100 -3 -3 1014.3 1011.3
23 16.02 З 8
{14}
н/о н/о +4.8 +4.8 100 -1 -1 1014.8 1011.8
00 17.02 З 9
{13}
н/о н/о +4.9 +4.7 99 -2 -2 1015.2 1012.3
01 17.02 З 6
{10}
н/о н/о +5.2 +4.8 97 -0 -0 1015.7 1012.8
02 17.02 З 8
{11}
н/о н/о +5.2 +4.7 97 -1 -1 1015.4 1012.5
03 17.02 З 5
{11}
н/о н/о +4.9 +4.7 99 -0 -0 1015.7 1012.8
04 17.02 З 1
{9}
н/о н/о +3.6 +3.4 99 +2 +2 1016.1 1013.2
05 17.02 З 1
{5}
н/о н/о +3.7 +3.7 100 +2 +2 1016.3 1013.4
06 17.02 СЗ 2
{3}
н/о н/о +3.6 +3.5 99 0 0 1016.9 1013.9 +3.5 +5.6
07 17.02 СВ 1
{3}
н/о н/о +3.2 +3.2 100 +1 +1 1017.4 1014.5
08 17.02 штиль 0
{3}
н/о н/о +3.4 +3.2 99 +2 +2 1018.1 1015.1
09 17.02 З 2
{2}
н/о н/о +3.8 +3.8 100 +1 +1 1018.5 1015.6
10 17.02 СЗ 3
{4}
н/о н/о +3.6 +3.3 98 -1 -1 1019.0 1016.1
11 17.02 З 2
{4}
н/о н/о +3.5 +3.5 100 0 0 1019.3 1016.4
12 17.02 З 2
{3}
н/о н/о +3.6 +3.6 100 0 0 1019.6 1016.6
13 17.02 СЗ 1
{3}
н/о н/о +3.6 +3.4 99 +2 +2 1019.6 1016.7
14 17.02 В 2
{2}
н/о н/о +3.5 +3.3 99 0 0 1019.4 1016.4
15 17.02 ЮВ 3
{4}
н/о н/о +3.9 +3.9 100 -0 -0 1019.1 1016.2
16 17.02 Ю 6
{7}
н/о н/о +4.1 +3.9 99 -2 -2 1018.8 1015.9
17 17.02 Ю 8
{9}
н/о н/о +3.9 +3.9 100 -3 -3 1018.9 1015.9
18 17.02 ЮВ 8
{10}
н/о н/о +4.0 +3.8 99 -3 -3 1018.6 1015.7 +3.2 +4.4
19 17.02 ЮВ 8
{10}
н/о н/о +4.2 +4.2 100 -2 -2 1018.4 1015.5
20 17.02 Ю 10
{12}
н/о н/о +4.4 +4.2 99 -3 -3 1018.3 1015.3
21 17.02 Ю 9
{12}
н/о н/о +4.5 +4.3 99 -2 -2 1018.2 1015.2
22 17.02 Ю 10
{12}
н/о н/о +4.7 +4.7 100 -2 -2 1017.4 1014.4
23 17.02 Ю 10
{13}
н/о н/о +4.4 +4.4 100 -3 -3 1017.0 1014.1
00 18.02 Ю 11
{13}
н/о н/о +4.9 +4.7 99 -2 -2 1016.4 1013.5
01 18.02 Ю 13
{15}
н/о н/о +5.7 +4.5 92 -1 -1 1015.2 1012.3
02 18.02 Ю 13
{16}
н/о н/о +5.2 +5.2 100 -2 -2 1014.5 1011.6
03 18.02 Ю 12
{16}
н/о н/о +4.8 +4.4 97 -2 -2 1013.8 1010.9
04 18.02 Ю 12
{15}
н/о н/о +4.7 +4.7 100 -3 -3 1013.3 1010.4
05 18.02 Ю 12
{15}
н/о н/о +4.5 +4.5 100 -3 -3 1012.6 1009.7
06 18.02 Ю 12
{15}
н/о н/о +4.5 +4.2 98 -3 -3 1012.3 1009.4 +4.0 +5.7
07 18.02 Ю 11
{14}
н/о н/о +4.5 +4.4 99 -3 -3 1012.2 1009.3
08 18.02 Ю 10
{13}
н/о н/о +4.5 +4.2 98 -2 -2 1012.3 1009.4
09 18.02 Ю 9
{13}
н/о н/о +4.6 +4.0 96 -2 -2 1012.2 1009.3
10 18.02 Ю 9
{11}
н/о н/о +4.5 +3.9 96 -2 -2 1011.7 1008.7
11 18.02 Ю 9
{12}
н/о н/о +4.5 +3.9 96 -2 -2 1011.7 1008.8
12 18.02 Ю 8
{12}
н/о н/о +4.7 +4.7 100 -2 -2 1011.1 1008.2
13 18.02 ЮЗ 10
{12}
н/о н/о +4.8 +4.5 98 -2 -2 1010.5 1007.6
14 18.02 ЮЗ 9
{12}
н/о н/о +5.0 +4.9 99 -1 -1 1009.8 1006.9
15 18.02 ЮЗ 11
{14}
н/о н/о +5.0 +4.8 99 -2 -2 1009.3 1006.4
16 18.02 ЮЗ 9
{14}
н/о н/о +4.9 +4.9 100 -2 -2 1009.5 1006.6
17 18.02 ЮЗ 6
{13}
н/о н/о +5.2 +5.0 99 -0 -0 1009.1 1006.2
18 18.02 Ю 5
{9}
н/о н/о +5.2 +4.9 98 0 0 1008.8 1005.9 +4.4 +5.4
19 18.02 Ю 6
{9}
н/о н/о +5.4 +5.0 97 0 0 1008.0 1005.1
20 18.02 Ю 3
{7}
н/о н/о +5.3 +4.9 97 +2 +2 1007.7 1004.8
21 18.02 Ю 7
{10}
н/о н/о +5.6 +4.9 95 0 0 1006.9 1004.0
22 18.02 Ю 7
{10}
н/о н/о +5.5 +4.8 95 0 0 1006.2 1003.3
23 18.02 ЮЗ 10
{13}
н/о н/о +5.6 +4.7 94 -1 -1 1005.1 1002.2
00 19.02 ЮЗ 11
{14}
н/о н/о +5.4 +4.6 95 -1 -1 1004.4 1001.5
01 19.02 ЮЗ 12
{15}
н/о н/о +5.4 +4.4 93 -2 -2 1003.3 1000.4
02 19.02 ЮЗ 11
{15}
н/о н/о +5.2 +4.5 95 -2 -2 1002.8 999.9
03 19.02 ЮЗ 10
{15}
н/о н/о +5.4 +5.4 100 -1 -1 1001.9 999.1
04 19.02 ЮЗ 10
{14}
н/о н/о +5.3 +5.0 98 -1 -1 1001.1 998.2
05 19.02 ЮЗ 10
{14}
н/о н/о +5.2 +5.2 100 -1 -1 1000.4 997.5
06 19.02 ЮЗ 12
{15}
н/о н/о +5.2 +4.8 97 -2 -2 999.8 997.0 +5.1 +5.9
07 19.02 ЮЗ 10
{15}
н/о н/о +5.2 +4.5 95 -1 -1 999.2 996.4
08 19.02 ЮЗ 10
{14}
н/о н/о +5.2 +4.9 98 -1 -1 998.8 996.0
09 19.02 ЮЗ 11
{14}
н/о н/о +5.2 +4.6 96 -2 -2 998.2 995.4
10 19.02 ЮЗ 14
{17}
н/о н/о +5.2 +4.3 94 -2 -2 997.2 994.4
11 19.02 ЮЗ 13
{17}
н/о н/о +5.4 +4.2 92 -2 -2 996.6 993.7
12 19.02 ЮЗ 13
{17}
н/о н/о +5.4 +4.3 93 -2 -2 996.6 993.7
13 19.02 З 13
{17}
н/о н/о +5.6 +3.9 89 -1 -1 996.5 993.6
14 19.02 З 12
{17}
н/о н/о +5.6 +3.4 86 -1 -1 996.4 993.5
15 19.02 З 14
{17}
н/о н/о +5.8 +3.4 85 -1 -1 996.7 993.8
16 19.02 З 13
{17}
н/о н/о +5.7 +2.9 82 -1 -1 997.1 994.2
17 19.02 З 15
{18}
н/о н/о +6.0 +2.5 78 -1 -1 997.2 994.3
18 19.02 З 15
{18}
н/о н/о +6.1 +1.8 74 -1 -1 997.6 994.8 +5.1 +6.1
19 19.02 З 15
{19}
н/о н/о +5.7 +1.4 74 -1 -1 998.8 995.9
20 19.02 З 15
{19}
н/о н/о +5.4 +1.5 76 -2 -2 999.6 996.8
21 19.02 З 14
{18}
н/о н/о +5.2 +2.0 80 -2 -2 1000.4 997.5
22 19.02 З 12
{17}
н/о н/о +5.0 +1.7 79 -2 -2 1001.0 998.2
23 19.02 З 12
{17}
н/о н/о +5.0 +1.6 79 -2 -2 1002.2 999.3
00 20.02 З 10
{15}
н/о н/о +5.0 +1.6 79 -1 -1 1003.2 1000.3
01 20.02 З 8
{14}
н/о н/о +5.1 +1.6 78 -1 -1 1004.2 1001.3
02 20.02 З 6
{12}
н/о н/о +4.7 +1.9 82 -1 -1 1005.3 1002.4
03 20.02 З 7
{10}
н/о н/о +4.7 +2.6 86 -1 -1 1006.4 1003.5
04 20.02 З 5
{8}
н/о н/о +4.7 +2.2 84 -0 -0 1007.4 1004.6
05 20.02 СЗ 3
{8}
н/о н/о +4.7 +2.4 85 +1 +1 1008.5 1005.6
06 20.02 В 2
{6}
н/о н/о +3.8 +2.1 89 +1 +1 1009.9 1007.0 +3.6 +6.1
07 20.02 В 2
{5}
н/о н/о +4.0 +1.8 86 +1 +1 1010.8 1007.9
08 20.02 В 4
{6}
н/о н/о +3.7 -0.5 74 -1 -1 1011.9 1009.0
09 20.02 В 4
{6}
н/о н/о +3.4 -2.6 65 -1 -1 1013.0 1010.0
10 20.02 В 3
{6}
н/о н/о +3.6 -1.8 68 0 0 1013.9 1010.9
11 20.02 ЮВ 4
{6}
н/о н/о +4.7 -3.5 55 +1 +1 1014.3 1011.4
12 20.02 ЮВ 4
{6}
н/о н/о +5.1 -3.3 55 +2 +2 1014.7 1011.7
13 20.02 ЮВ 5
{6}
н/о н/о +5.1 -3.5 54 +1 +1 1014.7 1011.8
14 20.02 ЮВ 4
{6}
н/о н/о +4.8 -0.9 67 +1 +1 1014.6 1011.6
15 20.02 Ю 5
{6}
н/о н/о +5.0 -2.2 60 +1 +1 1014.5 1011.6
16 20.02 Ю 7
{8}
н/о н/о +4.3 +1.9 84 -1 -1 1014.5 1011.6
17 20.02 ЮВ 5
{8}
н/о н/о +4.2 +3.2 93 -1 -1 1014.7 1011.7
18 20.02 Ю 5
{8}
н/о н/о +4.1 +3.6 97 -1 -1 1014.8 1011.9 +3.2 +5.4
19 20.02 ЮЗ 3
{7}
н/о н/о +4.1 +3.5 96 0 0 1015.0 1012.0
20 20.02 Ю 3
{6}
н/о н/о +3.8 +3.4 97 -0 -0 1015.0 1012.1
21 20.02 Ю 2
{4}
н/о н/о +3.6 +3.4 99 0 0 1014.9 1012.0
22 20.02 ЮВ 5
{5}
н/о н/о +3.6 +3.6 100 -2 -2 1014.7 1011.8
23 20.02 ЮВ 5
{6}
н/о н/о +3.6 +3.4 99 -2 -2 1014.4 1011.5
00 21.02 В 7
{8}
н/о н/о +3.7 +3.1 96 -2 -2 1013.8 1010.8
01 21.02 В 7
{9}
н/о н/о +3.7 +3.1 96 -2 -2 1013.5 1010.5
02 21.02 ЮВ 7
{10}
н/о н/о +3.8 +3.8 100 -2 -2 1012.9 1010.0
03 21.02 ЮВ 7
{10}
н/о н/о +3.9 +3.6 98 -2 -2 1012.5 1009.6
04 21.02 ЮВ 6
{9}
н/о н/о +4.4 +4.2 99 -1 -1 1011.9 1009.0
05 21.02 Ю 3
{9}
н/о н/о +4.4 +4.2 99 +1 +1 1012.3 1009.4
06 21.02 Ю 3
{9}
н/о н/о +4.4 +4.3 99 +1 +1 1012.0 1009.1 +3.5 +4.4
07 21.02 ЮЗ 3
{5}
н/о н/о +4.3 +4.1 99 0 0 1012.0 1009.1
08 21.02 З 2
{4}
н/о н/о +4.2 +4.2 100 +1 +1 1012.8 1009.9
09 21.02 З 1
{4}
н/о н/о +4.3 +4.1 99 +3 +3 1013.6 1010.7
10 21.02 В 6
{8}
н/о н/о +2.9 +2.3 96 -3 -3 1014.3 1011.4
11 21.02 СВ 7
{8}
н/о н/о +2.8 +2.0 94 -4 -4 1015.4 1012.4
12 21.02 СВ 6
{8}
н/о н/о +2.8 +1.6 92 -3 -3 1016.4 1013.4
13 21.02 СВ 6
{8}
н/о н/о +2.6 +2.1 97 -4 -4 1017.4 1014.4
14 21.02 СВ 6
{9}
н/о н/о +2.5 +1.1 90 -4 -4 1018.5 1015.6
15 21.02 СВ 8
{10}
н/о н/о +2.2 +0.8 90 -5 -5 1019.8 1016.9
16 21.02 СВ 9
{11}
н/о н/о +1.9 +0.4 90 -5 -5 1020.5 1017.5
17 21.02 СВ 7
{11}
н/о н/о +2.0 +0.3 88 -5 -5 1022.3 1019.3
18 21.02 СВ 8
{11}
н/о н/о +1.9 0.0 87 -5 -5 1023.7 1020.7 +1.8 +4.5
19 21.02 СВ 8
{11}
н/о н/о +1.6 +0.1 90 -6 -6 1025.1 1022.1
20 21.02 СВ 8
{11}
н/о н/о +1.5 -0.1 89 -6 -6 1027.0 1024.0
21 21.02 В 8
{11}
н/о н/о +1.5 0.0 90 -6 -6 1028.1 1025.1
22 21.02 В 7
{11}
н/о н/о +1.4 -0.9 85 -5 -5 1029.8 1026.8
23 21.02 В 7
{11}
н/о н/о +1.5 -0.4 87 -5 -5 1031.7 1028.7
00 22.02 В 5
{11}
н/о н/о +1.4 -1.4 82 -4 -4 1033.2 1030.2
01 22.02 В 5
{7}
н/о н/о +1.4 -0.6 87 -4 -4 1034.1 1031.1
02 22.02 В 6
{8}
н/о н/о +1.2 -1.2 84 -5 -5 1034.9 1031.9
03 22.02 В 6
{8}
н/о н/о +1.2 -1.0 85 -5 -5 1036.0 1033.0
05 22.02 ЮВ 5
{9}
н/о н/о +1.1 -1.4 83 -5 -5 1037.8 1034.8
06 22.02 ЮВ 6
{9}
н/о н/о +1.1 -1.4 83 -5 -5 1039.0 1035.9 +1.0 +1.9
07 22.02 ЮВ 7
{8}
н/о н/о +1.1 -1.8 81 -6 -6 1039.7 1036.7
08 22.02 ЮВ 8
{10}
н/о н/о +0.8 -2.2 80 -6 -6 1040.4 1037.4
09 22.02 Ю 9
{10}
н/о н/о +0.6 -2.0 83 -7 -7 1041.1 1038.1
11 22.02 Ю 9 н/о н/о +1.3 -1.0 85 -6 -6 1041.7 1038.7
12 22.02 Ю 10
{12}
н/о н/о +1.4 -1.5 81 -6 -6 1041.5 1038.5
13 22.02 Ю 10
{12}
н/о н/о +1.5 -1.7 79 -6 -6 1041.2 1038.2
14 22.02 Ю 9
{12}
н/о н/о +1.6 -2.3 75 -6 -6 1041.8 1038.7
15 22.02 Ю 9
{12}
н/о н/о +2.0 -2.0 75 -5 -5 1041.8 1038.8
16 22.02 Ю 9
{11}
н/о н/о +2.2 -1.3 78 -5 -5 1041.5 1038.5
17 22.02 Ю 9
{11}
н/о н/о +2.4 -0.1 84 -5 -5 1041.2 1038.2

 

Местоположение метеостанции Вадероарна (Швеция): широта 58.58 долгота 11.07 высота над уровнем моря 24 м.

В архиве по умолчанию представлена погода на Вадероарна за последнюю неделю. Архивные данные за месяц целиком и за предыдущие месяцы, начиная с января 2011 года, Вы можете получить, выбрав интересующий диапазон дат из раскрывающегося списка и нажав кнопку "Ввод!".


*Определитесь, кто Вы:
робот инопланетянин человек

Внимание! Время в таблицах - всемирное. Для получения местного времени необходимо прибавить поправку, которая равна 1 ч.

Смотрите также архив погоды в соседних городах и на ближайших метеорологических станциях:

Погода в Худе (Швеция) (22 км)
Погода в Нордкостере (Швеция) (36 км)
Погода на Маяке Maseskar (Швеция) (56 км)
Погода на Маяке Ferder (Норвегия) (59 км)
Погода на Маяке Stromtangen (Норвегия) (65 км)
Погода в Кроппефял-Гранане (Швеция) (66 км)
Погода на Маяке Svenner (Норвегия) (69 км)
Погода в Торпаброне (Швеция) (77 км)
Погода в Сарпсборге (Норвегия) (78 км)
Погода в Бергаруде (Швеция) (78 км)

Пояснения к столбцам:

Ветер - указаны скорость ветра в м/с - средняя за 10 мин, порывы в срок и между сроками (в фигурных скобках) и направление, откуда дует ветер: С - северный, СВ - северо-восточный, В - восточный, ЮВ - юго-восточный, Ю - южный, ЮЗ - юго-западный, З - западный, СЗ - северо-западный.
Видимость - горизонтальная дальность видимости в метрах или километрах. При видимости от 1 до 10 км при отсутствии осадков обычно наблюдается дымка, при ухудшении видимости до 1 км и менее - туман. В сухую погоду видимость может ухудшаться дымом, пылью или мглою.
Явления - указаны атмосферные явления, наблюдавшиеся в срок или в последний час перед сроком; фигурными скобками обозначены явления, наблюдавшиеся между сроками (за 1-3 часа до срока); квадратными скобками обозначены град или гололедные отложения с указанием их диаметра в мм.
Облачность - указаны через наклонную черту общая и нижняя облачность в баллах и высота нижней границы облаков в метрах; квадратными скобками обозначены формы облаков: Ci - перистые, Cs - перисто-слоистые, Cc - перисто-кучевые, Ac - высококучевые, As - высокослоистые, Sc - слоисто-кучевые, Ns - слоисто-дождевые, Cu - кучевые, Cb - кучево-дождевые. Подробнее классификацию облаков см. в Атласе облаков (PDF).
T - Температура воздуха - температура, измеренная на высоте 2 м над землей.
Td - Температура точки росы - температура, при понижении до которой содержащийся в воздухе водяной пар достигнет насыщения.
f - Относительная влажность воздуха - влажноcть воздуха, измеренная на высоте 2 м над землей.
Te - Эффективная температура - температура, которую ощущает одетый по сезону человек в тени. Характеристика душности погоды. При расчете учитывается влияние влажности воздуха и скорости ветра на теплоощущения человека.
Tes - Эффективная температура на солнце - температура, которую ощущает человек, с поправкой на солнечный нагрев. Характеристика знойности погоды. Зависит от высоты солнца над горизонтом, облачности и скорости ветра. Ночью, в пасмурную погоду, а также при ветре 12 м/с и более поправка равна нулю.
P - Атмосферное давление - приведенное к уровню моря атмосферное давление.
Po - Атмосферное давление - измеренное на уровне метеостанции атмосферное давление.
Tmin - Минимальная температура - минимум температуры воздуха на высоте 2 м над землей.
Tmax - Максимальная температура - максимум температуры воздуха на высоте 2 м над землей.
R - Количество осадков - Количество выпавших осадков за период времени, мм. При наведении курсора мыши на число - период времени, за который выпало указанное количество осадков.
R24 - Количество осадков - Количество выпавших осадков за 24 часа, мм.
S - Снежный покров - Высота снежного покрова, см. При наведении курсора мыши на число - состояние снежного покрова и степень покрытия местности в баллах.